N3HBJ Weather Reports


Display with metric or nautical units.
time (UTC)temp
F
wind
direction
speed
MPH
gust
MPH
rain 1hr
in
rain 24hr
in
rain mn
in
humidity
%
barometer
mb
20260831202858 82 88 1.0 7.0 0.00 0.12 0.12 65 1019.2
20260831202359 82 69 0.0 6.0 0.00 0.12 0.12 66 1019.2
20260831202126 82 83 1.0 8.0 0.00 0.12 0.12 65 1019.3
20260831201358 82 85 2.0 8.0 0.00 0.12 0.12 65 1019.4
20260831200857 82 73 2.0 11.0 0.00 0.12 0.12 65 1019.5
20260831200357 82 74 2.0 11.0 0.00 0.12 0.12 66 1019.5
20260831200121 82 166 2.0 10.0 0.00 0.12 0.12 65 1019.5
20260831195357 82 46 1.0 5.0 0.00 0.12 0.12 68 1019.5
20260831195121 81 84 2.0 9.0 0.00 0.12 0.12 68 1019.5
20260831194357 81 58 2.0 9.0 0.00 0.12 0.12 67 1019.6
20260831194343 81 113 1.0 9.0 0.00 0.12 0.12 68 1019.6
20260831193357 81 113 1.0 9.0 0.00 0.12 0.12 69 1019.7
20260831192857 81 90 2.0 9.0 0.00 0.12 0.12 68 1019.7
20260831192357 81 119 2.0 8.0 0.00 0.12 0.12 67 1019.7
20260831192119 81 114 0.0 8.0 0.00 0.12 0.12 67 1019.8
20260831191357 80 86 1.0 7.0 0.00 0.12 0.12 69 1019.8
20260831190855 80 84 1.0 9.0 0.00 0.12 0.12 68 1019.9
20260831190354 80 115 1.0 9.0 0.00 0.12 0.12 70 1019.9
20260831185854 80 59 1.0 8.0 0.00 0.12 0.12 73 1020.0
20260831185355 79 59 1.0 8.0 0.00 0.12 0.12 71 1020.0
20260831184855 79 119 1.0 8.0 0.00 0.12 0.12 72 1020.1
20260831184354 78 68 0.0 7.0 0.00 0.12 0.12 74 1020.2
20260831183855 78 42 0.0 4.0 0.00 0.12 0.12 72 1020.2
20260831183618 77 40 1.0 5.0 0.00 0.12 0.12 73 1020.2
20260831183113 78 34 1.0 7.0 0.00 0.12 0.12 72 1020.2
20260831182355 78 22 1.0 7.0 0.00 0.12 0.12 73 1020.2
20260831181855 77 57 0.0 4.0 0.00 0.12 0.12 73 1020.2
20260831181355 77 116 0.0 4.0 0.00 0.12 0.12 73 1020.2
20260831180851 76 116 1.0 5.0 0.00 0.12 0.12 73 1020.2
20260831180351 76 61 0.0 5.0 0.00 0.12 0.12 73 1020.3
20260831175851 76 115 0.0 3.0 0.00 0.12 0.12 73 1020.5
20260831175351 76 84 1.0 8.0 0.00 0.12 0.12 74 1020.5
20260831174850 75 51 2.0 8.0 0.00 0.12 0.12 73 1020.7
20260831174351 75 86 1.0 8.0 0.00 0.12 0.12 73 1020.7
20260831173850 75 78 1.0 5.0 0.00 0.12 0.12 73 1020.8
20260831173615 75 90 2.0 5.0 0.00 0.12 0.12 73 1020.8
20260831172851 74 31 2.0 6.0 0.00 0.12 0.12 73 1020.8
20260831172347 75 59 1.0 6.0 0.00 0.12 0.12 72 1020.9
20260831171847 75 42 1.0 6.0 0.00 0.12 0.12 72 1020.9
20260831171348 75 80 1.0 6.0 0.00 0.12 0.12 72 1020.9
20260831170847 75 177 0.0 5.0 0.00 0.12 0.12 73 1020.9
20260831170346 74 76 1.0 6.0 0.00 0.12 0.12 72 1021.0
20260831165845 74 113 1.0 6.0 0.00 0.12 0.12 72 1021.1
20260831165605 74 103 0.0 5.0 0.00 0.12 0.12 75 1021.2
20260831164840 74 149 1.0 5.0 0.00 0.12 0.12 74 1021.3
20260831164556 73 76 0.0 4.0 0.00 0.12 0.12 74 1021.3
20260831163839 73 76 0.0 4.0 0.00 0.12 0.12 75 1021.4
20260831163339 73 68 0.0 4.0 0.00 0.12 0.12 75 1021.4
20260831162839 73 27 0.0 2.0 0.00 0.12 0.12 76 1021.3
20260831162338 73 61 0.0 4.0 0.00 0.12 0.12 76 1021.3
20260831161839 72 78 0.0 4.0 0.00 0.12 0.12 76 1021.3
20260831161338 72 76 0.0 4.0 0.00 0.12 0.12 76 1021.4
20260831160839 72 59 0.0 4.0 0.00 0.12 0.12 77 1021.4
20260831160351 72 5 0.0 3.0 0.00 0.12 0.12 77 1021.5
20260831155839 72 49 0.0 3.0 0.00 0.12 0.12 77 1021.6
20260831155343 72 33 0.0 3.0 0.00 0.12 0.12 77 1021.5
20260831155321 72 27 0.0 3.0 0.00 0.12 0.12 78 1021.6
20260831154338 72 68 0.0 2.0 0.00 0.12 0.12 77 1021.6
20260831153835 72 126 0.0 2.0 0.00 0.12 0.12 78 1021.6
20260831153333 71 51 0.0 3.0 0.00 0.12 0.12 77 1021.6
20260831152832 71 51 0.0 3.0 0.00 0.12 0.12 78 1021.6
20260831152333 71 50 0.0 0.0 0.00 0.12 0.12 81 1021.6
20260831151833 71 50 0.0 0.0 0.00 0.12 0.12 81 1021.6
20260831151345 71 50 0.0 1.0 0.00 0.12 0.12 81 1021.5
20260831150831 71 50 0.0 1.0 0.00 0.12 0.12 81 1021.6
20260831150329 70 50 0.0 2.0 0.00 0.12 0.12 83 1021.6
20260831145829 70 50 0.0 2.0 0.00 0.12 0.12 82 1021.5
20260831145330 70 50 0.0 0.0 0.00 0.12 0.12 85 1021.5
20260831144827 70 50 0.0 0.0 0.00 0.12 0.12 85 1021.5
20260831144326 70 50 0.0 0.0 0.00 0.12 0.12 86 1021.6
20260831143819 70 50 0.0 0.0 0.00 0.12 0.12 86 1021.6
20260831143754 69 50 0.0 0.0 0.00 0.12 0.12 86 1021.6
20260831142812 69 50 0.0 0.0 0.00 0.12 0.12 87 1021.5
20260831142313 69 50 0.0 0.0 0.00 0.12 0.12 86 1021.5
20260831141812 69 50 0.0 0.0 0.00 0.12 0.12 86 1021.5
20260831141312 68 50 0.0 0.0 0.00 0.12 0.12 86 1021.4
20260831140822 68 50 0.0 0.0 0.00 0.12 0.12 88 1021.4
20260831140532 68 50 0.0 0.0 0.00 0.12 0.12 88 1021.4
20260831135809 67 50 0.0 2.0 0.00 0.12 0.12 88 1021.3
20260831135307 67 50 0.0 2.0 0.01 0.12 0.12 87 1021.3
20260831134804 67 50 0.0 2.0 0.02 0.12 0.12 87 1021.3
20260831134305 67 11 0.0 3.0 0.03 0.12 0.12 88 1021.3
20260831133801 66 12 1.0 4.0 0.03 0.12 0.12 87 1021.4
20260831133302 66 73 1.0 4.0 0.04 0.12 0.12 88 1021.6
20260831132801 66 118 0.0 2.0 0.04 0.12 0.12 90 1021.6
20260831132523 66 121 0.0 0.0 0.06 0.12 0.12 90 1021.7
20260831131802 65 121 0.0 2.0 0.09 0.12 0.12 91 1021.7
20260831131301 65 121 0.0 2.0 0.10 0.12 0.12 91 1021.7
20260831130801 65 121 0.0 1.0 0.11 0.12 0.12 91 1021.7
20260831130301 65 121 0.0 0.0 0.11 0.12 0.12 91 1021.7
20260831125756 65 121 0.0 0.0 0.11 0.12 0.12 91 1021.8
20260831125250 65 121 1.0 3.0 0.10 0.11 0.11 90 1021.8
20260831124744 65 121 1.0 3.0 0.10 0.10 0.10 90 1021.8
20260831124238 65 132 0.0 3.0 0.09 0.09 0.09 91 1021.8
20260831123733 65 235 0.0 2.0 0.09 0.09 0.09 91 1022.0
20260831123226 65 235 0.0 0.0 0.08 0.08 0.08 91 1022.2
20260831122720 65 235 0.0 0.0 0.08 0.08 0.08 91 1022.2
20260831122214 65 234 0.0 0.0 0.05 0.05 0.06 91 1022.1
20260831121728 64 235 0.0 0.0 0.03 0.03 0.03 91 1022.0
20260831121214 64 235 0.0 0.0 0.02 0.02 0.02 91 1022.1
20260831120712 64 235 0.0 0.0 0.01 0.01 0.01 91 1021.8
20260831120213 64 235 0.0 0.0 0.01 0.01 0.01 91 1021.7
20260831115713 64 235 0.0 0.0 0.01 0.01 0.01 91 1021.7
20260831115212 64 235 0.0 0.0 0.00 0.00 0.00 91 1021.8
20260831114723 64 234 0.0 0.0 0.00 0.00 0.00 91 1021.9
20260831114439 64 235 0.0 0.0 0.00 0.00 0.00 91 1021.9
20260831113708 64 235 0.0 0.0 0.00 0.00 0.00 91 1021.9
20260831113206 64 235 0.0 0.0 0.00 0.00 0.00 90 1021.9
20260831112706 64 235 0.0 0.0 0.00 0.00 0.00 90 1021.8
20260831112219 64 235 0.0 0.0 0.00 0.00 0.00 90 1021.6
20260831111920 64 235 0.0 0.0 0.00 0.00 0.00 90 1021.4
20260831111204 64 235 0.0 0.0 0.00 0.00 0.00 90 1021.3
20260831110929 64 234 0.0 0.0 0.00 0.00 0.00 90 1021.4
20260831110203 64 235 0.0 0.0 0.00 0.00 0.00 90 1021.3
20260831105924 64 234 0.0 0.0 0.00 0.00 0.00 90 1021.3
20260831105202 64 235 0.0 0.0 0.00 0.00 0.00 90 1021.1
20260831104928 64 234 0.0 0.0 0.00 0.00 0.00 90 1021.1
20260831104202 64 234 0.0 0.0 0.00 0.00 0.00 90 1021.0
20260831103702 64 235 0.0 0.0 0.00 0.00 0.00 90 1021.0
20260831103202 64 234 0.0 0.0 0.00 0.00 0.00 90 1021.0
20260831102920 64 235 0.0 0.0 0.00 0.00 0.00 90 1021.1
20260831102201 64 235 0.0 0.0 0.00 0.00 0.00 90 1021.1
20260831101700 64 234 0.0 0.0 0.00 0.00 0.00 90 1021.2
20260831101201 64 235 0.0 0.0 0.00 0.00 0.00 90 1021.2
20260831100701 64 234 0.0 0.0 0.00 0.00 0.00 90 1021.2
20260831100643 64 235 0.0 0.0 0.00 0.00 0.00 90 1021.1
20260831095701 64 235 0.0 0.0 0.00 0.00 0.00 90 1021.1
20260831095201 64 235 0.0 0.0 0.00 0.00 0.00 90 1021.0
20260831094701 64 235 0.0 0.0 0.00 0.00 0.00 90 1021.0
20260831094201 64 235 0.0 0.0 0.00 0.00 0.00 90 1021.0
20260831093701 64 235 0.0 0.0 0.00 0.00 0.00 90 1020.9
20260831093201 64 235 0.0 0.0 0.00 0.00 0.00 90 1020.9
20260831092702 64 235 0.0 0.0 0.00 0.00 0.00 90 1020.9
20260831092201 64 234 0.0 0.0 0.00 0.00 0.00 90 1021.0
20260831091702 64 235 0.0 0.0 0.00 0.00 0.00 90 1021.1
20260831091202 64 234 0.0 0.0 0.00 0.00 0.00 90 1021.2
20260831090701 64 234 0.0 0.0 0.00 0.00 0.00 90 1021.2
20260831090201 64 235 0.0 0.0 0.00 0.00 0.00 90 1021.2
20260831085703 64 234 0.0 0.0 0.00 0.00 0.00 90 1021.2
20260831085649 64 235 0.0 0.0 0.00 0.00 0.00 90 1021.1
20260831084703 64 235 0.0 0.0 0.00 0.00 0.00 90 1021.1
20260831084426 64 234 0.0 0.0 0.00 0.00 0.00 89 1021.1
20260831083701 65 235 0.0 0.0 0.00 0.00 0.00 89 1021.1
20260831083429 65 234 0.0 0.0 0.00 0.00 0.00 89 1021.0
20260831082701 65 235 0.0 0.0 0.00 0.00 0.00 89 1021.0
20260831082423 65 234 0.0 0.0 0.00 0.00 0.00 89 1021.0
20260831081701 65 235 0.0 0.0 0.00 0.00 0.00 89 1021.1
20260831081202 65 235 0.0 0.0 0.00 0.00 0.00 89 1021.0
20260831080702 65 235 0.0 0.0 0.00 0.00 0.00 89 1020.9
20260831080201 65 234 0.0 0.0 0.00 0.00 0.00 89 1020.9
20260831075701 65 235 0.0 0.0 0.00 0.00 0.00 89 1020.9
20260831075202 65 235 0.0 0.0 0.00 0.00 0.00 89 1021.0
20260831074701 65 235 0.0 0.0 0.00 0.00 0.00 89 1021.0
20260831074201 65 235 0.0 0.0 0.00 0.00 0.00 89 1020.9
20260831073702 65 235 0.0 0.0 0.00 0.00 0.00 88 1020.9
20260831073202 65 235 0.0 0.0 0.00 0.00 0.00 88 1020.8
20260831072702 65 234 0.0 0.0 0.00 0.00 0.00 88 1020.8
20260831072200 65 234 0.0 0.0 0.00 0.00 0.00 88 1020.9
20260831071701 65 235 0.0 0.0 0.00 0.00 0.00 88 1020.9
20260831071202 65 235 0.0 0.0 0.00 0.00 0.00 88 1020.8
20260831070702 65 235 0.0 0.0 0.00 0.00 0.00 88 1020.7
20260831070202 65 235 0.0 0.0 0.00 0.00 0.00 88 1020.6
20260831065658 65 234 0.0 1.0 0.00 0.00 0.00 87 1020.3
20260831065153 66 235 0.0 1.0 0.00 0.00 0.00 88 1020.5
20260831064653 66 235 0.0 0.0 0.00 0.00 0.00 88 1020.6
20260831064416 66 235 0.0 0.0 0.00 0.00 0.00 89 1020.6
20260831063651 66 234 0.0 0.0 0.00 0.00 0.00 89 1020.6
20260831063149 66 234 0.0 0.0 0.00 0.00 0.00 89 1020.9
20260831062650 66 235 0.0 0.0 0.00 0.00 0.00 89 1021.0
20260831062148 66 235 0.0 0.0 0.00 0.00 0.00 89 1021.1
20260831061912 66 235 0.0 0.0 0.00 0.00 0.00 89 1021.1
20260831061148 66 235 0.0 0.0 0.00 0.00 0.00 88 1021.1
20260831060920 66 234 0.0 0.0 0.00 0.00 0.00 88 1021.1
20260831060146 66 235 0.0 0.0 0.00 0.00 0.00 88 1021.1
20260831055644 66 235 0.0 0.0 0.00 0.00 0.00 88 1021.1
20260831055141 66 235 0.0 0.0 0.00 0.00 0.00 88 1021.2
20260831054652 66 235 0.0 0.0 0.00 0.00 0.00 88 1021.3
20260831054138 66 235 0.0 0.0 0.00 0.00 0.00 88 1021.3
20260831053638 66 235 0.0 0.0 0.00 0.00 0.00 88 1021.4
20260831053139 66 235 0.0 0.0 0.00 0.00 0.00 88 1021.4
20260831052638 66 234 0.0 0.0 0.00 0.00 0.00 88 1021.5
20260831052137 66 235 0.0 0.0 0.00 0.00 0.00 88 1021.5
20260831051635 67 234 0.0 0.0 0.00 0.00 0.00 88 1021.5
20260831051129 67 235 0.0 0.0 0.00 0.00 0.00 88 1021.5
20260831050625 67 235 0.0 0.0 0.00 0.00 0.00 88 1021.6
20260831050123 67 235 0.0 0.0 0.00 0.00 0.00 88 1021.7
20260831045621 67 235 0.0 0.0 0.00 0.00 0.00 88 1021.7
20260831045347 67 235 0.0 0.0 0.00 0.00 0.00 88 1021.8
20260831044622 67 235 0.0 0.0 0.00 0.00 0.00 88 1021.8
20260831044122 67 235 0.0 0.0 0.00 0.00 0.00 88 1021.7
20260831043624 67 235 0.0 0.0 0.00 0.00 0.00 88 1021.7
20260831043400 67 235 0.0 0.0 0.00 0.00 0.00 88 1021.7
20260831042619 67 235 0.0 0.0 0.00 0.00 0.00 88 1021.7
20260831042343 67 235 0.0 0.0 0.00 0.00 0.00 88 1021.7
20260831041619 67 235 0.0 0.0 0.00 0.00 0.00 88 1021.7
20260831041121 67 235 0.0 0.0 0.00 0.00 0.00 88 1021.8
20260831040617 67 234 0.0 0.0 0.00 0.00 0.00 88 1021.8
20260831040338 67 235 0.0 0.0 0.00 0.00 0.00 88 1021.8
20260831035617 67 235 0.0 0.0 0.00 0.00 0.00 88 1021.7
20260831035116 67 234 0.0 0.0 0.00 0.00 0.00 88 1021.8
20260831034613 67 235 0.0 0.0 0.00 0.00 0.00 88 1021.8
20260831034113 67 235 0.0 0.0 0.00 0.00 0.00 88 1021.8
20260831033617 67 235 0.0 0.0 0.00 0.00 0.00 87 1021.8
20260831033109 67 235 0.0 0.0 0.00 0.00 0.00 87 1021.9
20260831032614 68 234 0.0 0.0 0.00 0.00 0.00 87 1021.9
20260831032107 68 234 0.0 0.0 0.00 0.00 0.00 87 1021.9
20260831031605 68 235 0.0 0.0 0.00 0.00 0.00 87 1022.0
20260831031105 68 234 0.0 0.0 0.00 0.00 0.00 87 1022.0
20260831030605 68 234 0.0 0.0 0.00 0.00 0.00 87 1022.0
20260831030118 68 235 0.0 0.0 0.00 0.00 0.00 87 1022.0
20260831025605 68 235 0.0 0.0 0.00 0.00 0.00 87 1022.1
20260831025322 68 234 0.0 0.0 0.00 0.00 0.00 87 1022.1
20260831024601 68 234 0.0 0.0 0.00 0.00 0.00 87 1022.1
20260831024100 68 235 0.0 0.0 0.00 0.00 0.00 87 1022.1
20260831023601 68 235 0.0 0.0 0.00 0.00 0.00 86 1022.1
20260831023101 68 234 0.0 0.0 0.00 0.00 0.00 86 1022.1
20260831022602 68 235 0.0 0.0 0.00 0.00 0.00 86 1022.1
20260831022101 68 235 0.0 0.0 0.00 0.00 0.00 86 1022.1
20260831021601 68 235 0.0 0.0 0.00 0.00 0.00 86 1022.1
20260831021101 68 234 0.0 0.0 0.00 0.00 0.00 86 1022.0
20260831020815 68 234 0.0 0.0 0.00 0.00 0.00 86 1022.0
20260831020107 68 234 0.0 0.0 0.00 0.00 0.00 86 1022.0
20260831015556 68 234 0.0 0.0 0.00 0.00 0.00 86 1021.9
20260831015052 68 234 0.0 0.0 0.00 0.00 0.00 86 1022.0
20260831014556 68 234 0.0 0.0 0.00 0.00 0.00 86 1022.0
20260831014322 68 235 0.0 0.0 0.00 0.00 0.00 86 1021.9
20260831013815 68 234 0.0 0.0 0.00 0.00 0.00 86 1021.9
20260831013055 68 234 0.0 0.0 0.00 0.00 0.00 86 1021.8
20260831012553 69 235 0.0 0.0 0.00 0.00 0.00 86 1021.9
20260831012309 69 235 0.0 0.0 0.00 0.00 0.00 86 1021.9
20260831011553 69 234 0.0 0.0 0.00 0.00 0.00 85 1021.8
20260831011312 69 234 0.0 0.0 0.00 0.00 0.00 85 1021.7
20260831010551 69 235 0.0 0.0 0.00 0.00 0.00 85 1021.6
20260831010310 69 234 0.0 0.0 0.00 0.00 0.00 85 1021.4
20260831005813 69 234 0.0 0.0 0.00 0.00 0.00 85 1021.3
20260831005049 69 235 0.0 0.0 0.00 0.00 0.00 84 1021.3
20260831004549 69 235 0.0 0.0 0.00 0.00 0.00 84 1021.2
20260831004050 69 234 0.0 0.0 0.00 0.00 0.00 84 1021.1
20260831003544 69 234 0.0 0.0 0.00 0.00 0.00 83 1020.8
20260831003518 69 235 0.0 0.0 0.00 0.00 0.00 83 1020.7
20260831002759 70 234 0.0 0.0 0.00 0.00 0.00 82 1020.6
20260831002026 70 235 0.0 0.0 0.00 0.00 0.00 82 1020.5
20260831001533 70 234 0.0 0.0 0.00 0.00 0.00 82 1020.5
20260831001018 70 234 0.0 0.0 0.00 0.00 0.00 81 1020.3
20260831000733 70 234 0.0 0.0 0.00 0.00 0.00 81 1020.3
20260831000009 71 234 0.0 0.0 0.00 0.00 0.00 80 1020.2
20260830235506 71 235 0.0 0.0 0.00 0.00 0.00 80 1020.2
20260830235007 71 234 0.0 0.0 0.00 0.00 0.00 79 1020.2
20260830234506 71 234 0.0 0.0 0.00 0.00 0.00 79 1020.2
20260830234238 72 235 0.0 0.0 0.00 0.00 0.00 78 1020.2
20260830233727 72 235 0.0 0.0 0.00 0.00 0.00 78 1020.1
20260830233002 72 235 0.0 0.0 0.00 0.00 0.00 77 1020.0
20260830232725 72 234 0.0 0.0 0.00 0.00 0.00 77 1020.0
20260830232003 72 235 0.0 0.0 0.00 0.00 0.00 76 1020.0
20260830231503 73 235 0.0 0.0 0.00 0.00 0.00 75 1020.1
20260830231000 73 235 0.0 0.0 0.00 0.00 0.00 75 1020.2
20260830230500 73 235 0.0 0.0 0.00 0.00 0.00 74 1020.3
20260830230004 73 235 0.0 0.0 0.00 0.00 0.00 74 1020.3
20260830225458 74 235 0.0 0.0 0.00 0.00 0.00 72 1020.5
20260830224957 74 235 0.0 0.0 0.00 0.00 0.00 73 1020.5
20260830224457 74 235 0.0 0.0 0.00 0.00 0.00 72 1020.5
20260830223955 74 234 0.0 0.0 0.00 0.00 0.00 73 1020.6
20260830223455 74 235 0.0 0.0 0.00 0.00 0.00 72 1020.7
20260830222954 74 235 0.0 0.0 0.00 0.00 0.00 71 1020.7
20260830222454 74 235 0.0 0.0 0.00 0.00 0.00 73 1020.7
20260830222215 74 235 0.0 0.0 0.00 0.00 0.00 74 1020.7
20260830221454 74 235 0.0 0.0 0.00 0.00 0.00 74 1020.7
20260830220954 74 234 0.0 0.0 0.00 0.00 0.00 73 1020.6
20260830220454 74 235 0.0 0.0 0.00 0.00 0.00 72 1020.7
20260830215955 74 234 0.0 0.0 0.00 0.00 0.00 73 1020.7
20260830215454 74 235 0.0 0.0 0.00 0.00 0.00 72 1020.7
20260830214958 74 234 0.0 0.0 0.00 0.00 0.00 72 1020.6
20260830214954 74 235 0.0 0.0 0.00 0.00 0.00 72 1020.6
20260830213954 74 234 0.0 0.0 0.00 0.00 0.00 72 1020.7
20260830213454 74 234 0.0 0.0 0.00 0.00 0.00 72 1020.6
20260830212954 74 236 0.0 0.0 0.00 0.00 0.00 71 1020.7
20260830212454 74 236 0.0 0.0 0.00 0.00 0.00 71 1020.8
20260830211956 74 290 0.0 3.0 0.00 0.00 0.00 70 1020.7
20260830211720 75 290 0.0 3.0 0.00 0.00 0.00 70 1020.7
20260830210954 75 198 0.0 1.0 0.00 0.00 0.00 70 1020.7
20260830210715 75 281 0.0 0.0 0.00 0.00 0.00 69 1020.7
20260830205954 75 281 0.0 0.0 0.00 0.00 0.00 68 1020.7
20260830205454 76 281 0.0 2.0 0.00 0.00 0.00 67 1020.6
20260830204954 76 281 0.0 2.0 0.00 0.00 0.00 67 1020.5
20260830204454 76 281 0.0 6.0 0.00 0.00 0.00 67 1020.5
20260830203955 76 281 0.0 6.0 0.00 0.00 0.00 66 1020.3
20260830203455 76 161 0.0 3.0 0.00 0.00 0.00 66 1020.5
20260830203225 77 156 0.0 3.0 0.00 0.00 0.00 65 1020.5